SCP
0 0 0 1 1 1 1 1 1 1 1 1 1 1 1 1 1 1 1 1 1 1 1 1 1 1 1 1 1 1 1 1 1 1 0 0 0 0 0 0 0 0 0
0 0 0 0 1 1 1 1 1 1 1 1 1 1 1 1 1 1 1 1 1 1 1 1 1 1 1 1 1 1 1 1 1 1 0 0 0 0 0 0 0 0 0
0 0 0 0 0 1 1 1 1 1 1 1 1 1 1 1 1 1 1 1 1 1 1 1 1 1 1 1 1 1 1 1 1 1 0 0 0 0 0 0 0 0 0
0 0 0 0 0 0 0 0 0 1 1 1 1 1 1 1 1 1 1 0 0 0 0 0 0 1 1 1 1 1 1 1 0 0 0 0 0 0 0 0 0 0 0
0 0 0 0 0 0 0 0 0 0 0 0 1 1 1 1 1 0 0 0 0 0 0 0 0 0 1 1 1 1 0 0 0 0 0 0 0 0 0 0 0 0 0
0 0 0 0 0 0 0 0 0 0 0 0 0 0 0 0 0 0 0 0 0 0 0 0 0 0 0 0 0 0 0 0 0 0 0 0 0 0 0 0 0 0 0
0 0 0 0 0 0 0 0 0 0 0 0 0 0 0 0 0 0 0 0 0 0 0 0 0 0 0 0 0 0 0 0 0 0 0 0 0 0 0 0 0 0 0
0 0 0 0 0 0 0 0 0 0 0 0 0 0 0 0 0 0 0 0 0 0 0 0 0 0 0 0 0 0 0 0 0 0 0 0 0 0 0 0 0 0 0
0 0 0 0 0 0 0 0 0 0 0 0 0 0 0 0 0 0 0 0 0 0 0 0 0 0 0 0 0 0 0 0 0 0 0 0 0 0 0 0 0 0 0
0 0 0 0 0 0 0 0 0 0 0 0 0 0 0 0 0 0 0 0 0 0 0 0 0 0 0 0 0 0 0 0 0 0 0 0 0 0 0 0 0 0 0
0 0 0 0 0 0 0 0 0 0 0 0 0 0 0 0 0 0 0 0 0 0 0 0 0 0 0 0 0 0 0 0 0 0 0 0 0 0 0 0 0 0 0
0 0 0 0 0 0 0 0 0 0 0 0 0 0 0 0 0 0 0 0 0 0 0 0 0 0 0 0 0 0 0 0 0 0 0 0 0 0 0 0 0 0 0
0 0 0 0 0 0 0 0 0 0 0 0 0 0 0 0 0 0 0 0 0 0 0 0 0 0 0 0 0 0 0 0 0 0 0 0 0 0 0 0 0 0 0
0 0 0 0 0 0 0 0 0 0 0 0 0 0 0 0 0 0 0 0 0 0 0 0 0 0 0 0 0 0 0 0 0 0 0 0 0 0 0 0 0 0 0
0 0 0 0 0 0 0 0 0 0 0 0 0 0 0 0 0 0 0 0 0 0 0 0 0 0 0 0 0 0 0 0 0 0 0 0 0 0 0 0 0 0 0
0 0 0 0 0 0 0 0 0 0 0 0 0 0 0 0 0 0 0 0 0 0 0 0 0 0 0 0 0 0 0 0 0 0 0 0 0 0 0 0 0 0 0
0 0 0 0 0 0 0 0 0 0 0 0 0 0 0 0 0 0 0 0 0 0 0 0 0 0 0 0 0 0 0 0 0 0 0 0 0 0 0 0 0 0 0
0 0 0 0 0 0 0 0 0 0 0 0 0 0 0 0 0 0 0 0 0 0 0 0 0 0 0 0 0 0 0 0 0 0 0 0 0 0 0 0 0 0 0
0 0 0 0 0 0 0 0 0 0 0 0 0 0 0 0 0 0 0 0 0 0 0 0 0 0 0 0 0 0 0 0 0 0 0 0 0 0 0 0 0 0 0
0 0 0 0 0 0 0 0 0 0 0 0 0 0 0 0 0 0 0 0 0 0 0 0 0 0 0 0 0 0 0 0 0 0 0 0 0 0 0 0 0 0 0
0 0 0 0 0 0 0 0 0 0 0 0 0 0 0 0 0 0 0 0 0 0 0 0 0 0 0 0 0 0 0 0 0 0 0 0 0 0 0 0 0 0 0
0 0 0 0 0 0 0 0 0 0 0 0 0 0 0 0 0 0 0 0 0 0 0 0 0 0 0 0 0 0 0 0 0 0 0 0 0 0 0 0 0 0 0
0 0 0 0 0 0 0 0 0 0 0 0 0 0 0 0 0 0 0 0 0 0 0 0 0 0 0 0 0 0 0 0 0 0 0 0 0 0 0 0 0 0 0
0 0 0 0 0 0 0 0 0 0 0 0 0 0 0 0 0 0 0 0 0 0 0 0 0 0 0 0 0 0 0 0 0 0 0 0 0 0 0 0 0 0 0
0 0 0 0 0 0 0 0 0 0 0 0 0 0 0 0 0 0 0 0 0 0 0 0 0 0 0 0 0 0 0 0 0 0 0 0 0 0 0 0 0 0 0
0 0 0 0 0 0 0 0 0 0 0 0 0 0 0 0 0 0 0 0 0 0 0 0 0 0 0 0 0 0 0 0 0 0 0 0 0 0 0 0 0 0 0
Wind_Speed
9 9 10 9 8 8 7 6 5 4 2 0 1 1 1 1 1 1 1 2 3 3 3 4 5 6 6 7 7 6 7 5 5 5 3 2 2 2 2 2 2 3 3
8 9 10 9 9 9 8 7 6 4 3 2 1 0 1 0 0 0 0 1 2 2 3 4 4 5 5 7 7 7 6 5 6 5 5 4 3 2 2 2 3 3 3
7 8 9 10 10 9 9 7 7 6 5 3 1 1 1 1 1 0 0 1 2 1 2 3 4 5 5 4 6 7 8 6 6 5 5 5 5 4 3 2 3 3 3
7 7 8 9 9 9 8 8 8 7 7 4 2 1 0 1 0 1 1 2 2 3 2 3 3 4 4 4 5 6 6 7 6 4 3 2 3 5 5 3 3 4 4
7 8 8 8 8 8 8 8 8 8 8 6 5 3 2 2 1 1 2 1 2 3 3 3 3 2 2 2 3 3 5 5 6 4 4 3 2 3 5 5 5 4 4
7 7 7 7 8 8 8 8 8 9 8 8 6 5 4 3 3 2 1 1 2 3 5 3 3 3 2 2 1 0 1 2 3 3 4 4 4 4 4 6 7 5 4
7 6 7 8 8 9 8 8 8 8 8 8 8 7 6 5 4 3 3 3 3 4 5 4 4 4 4 4 3 3 2 1 2 2 2 2 2 3 3 7 6 5 4
7 7 7 7 7 8 8 8 8 8 8 8 8 8 7 5 5 6 5 4 4 4 5 5 6 6 5 5 5 5 5 4 4 4 3 2 3 3 4 6 8 7 4
8 7 7 7 7 7 7 7 8 8 8 8 8 8 8 7 7 7 6 5 6 6 7 7 7 7 7 7 6 6 6 6 6 5 5 4 3 4 4 5 6 7 7
8 8 6 6 6 6 6 7 8 8 8 8 8 7 8 8 8 8 9 8 7 7 8 8 8 8 8 8 8 7 7 8 7 6 7 6 5 5 5 5 4 4 6
9 7 6 6 6 6 6 7 7 8 8 8 8 8 8 8 8 8 8 8 8 8 9 9 9 9 9 9 9 9 9 9 9 8 9 9 8 6 5 5 5 5 6
9 8 7 6 6 6 6 7 7 8 7 7 8 8 8 8 9 9 8 8 9 9 9 9 10 9 10 10 10 10 10 10 10 10 10 9 8 8 6 6 7 6 6
10 8 7 6 6 6 6 6 7 7 7 7 8 9 9 9 9 9 9 9 10 10 10 9 10 10 10 10 10 10 11 10 11 11 11 10 10 10 8 7 7 7 7
10 8 7 6 6 6 6 6 7 7 7 8 8 9 9 9 9 9 9 9 9 9 9 9 10 10 10 10 10 10 11 11 11 11 11 10 10 9 9 8 8 8 8
10 9 8 7 7 6 6 6 7 7 7 8 8 8 8 8 9 9 9 9 9 10 9 9 10 10 9 9 9 10 11 11 12 12 12 12 13 13 9 7 7 7 6
11 10 9 8 7 7 7 7 7 7 7 8 8 8 8 8 8 8 8 9 9 9 9 10 10 11 9 10 11 9 10 10 11 11 11 11 12 14 14 15 14 10 6
12 11 10 9 8 7 7 7 7 7 7 8 8 8 8 8 8 8 9 8 8 9 9 10 11 11 11 11 11 10 10 11 10 10 9 9 9 9 11 10 10 11 11
12 11 9 9 8 7 7 7 7 7 8 8 8 8 8 8 8 8 9 8 7 7 8 9 10 10 10 9 8 7 10 11 11 10 10 10 10 9 6 8 9 8 7
12 11 10 10 9 8 7 8 8 7 8 8 7 7 7 8 8 9 8 7 7 8 8 9 9 10 9 9 9 6 8 9 10 10 10 9 10 9 8 6 7 7 6
11 10 10 10 9 8 7 8 8 8 8 8 7 7 7 8 9 9 8 7 7 8 8 9 9 9 9 9 11 9 6 7 7 8 9 12 9 9 9 5 6 6 5
12 12 11 9 9 8 8 8 8 8 8 7 7 7 7 8 8 8 7 6 7 8 8 8 8 9 8 9 12 12 5 5 6 6 7 8 7 7 7 5 6 4 3
13 12 10 9 8 8 8 9 8 8 8 7 7 7 7 7 7 7 6 6 6 7 7 7 7 7 7 8 8 10 10 8 6 5 6 7 5 5 5 4 4 3 6
13 11 11 10 9 8 8 9 9 8 8 7 8 8 8 6 6 6 6 5 4 4 5 5 6 6 6 6 4 4 5 6 5 6 7 4 1 2 3 3 2 4 2
12 10 11 11 10 9 8 8 8 7 7 8 8 7 7 6 6 4 5 4 4 4 4 5 5 5 5 5 4 3 4 4 3 4 5 4 1 1 3 2 1 2 4
11 10 10 10 11 10 10 10 9 8 8 8 7 6 7 7 6 6 6 5 7 7 5 4 4 4 6 7 8 7 6 6 5 3 1 2 2 2 3 3 3 2 2
11 11 11 11 11 11 10 9 9 8 8 7 6 6 6 6 6 7 7 10 8 7 8 9 8 7 8 4 4 4 4 4 6 5 2 3 3 3 3 3 2 2 3
Wind_Direction
70 60 53 48 49 48 46 43 32 29 17 351 220 195 179 191 211 210 245 262 253 248 247 253 236 237 232 225 216 203 197 191 169 156 147 123 94 102 116 127 132 123 117
73 59 52 47 44 41 35 36 31 25 14 352 320 353 86 126 60 294 12 297 287 276 253 253 254 246 237 229 215 203 199 191 184 178 166 172 164 136 112 127 130 122 116
73 59 48 42 39 34 28 28 27 22 16 3 357 119 146 147 157 177 68 11 349 348 319 279 261 256 244 234 222 211 205 199 198 197 182 184 190 150 117 101 101 106 103
84 67 53 43 37 30 29 32 30 28 22 18 31 27 18 170 72 13 56 55 30 16 356 323 293 269 258 249 235 222 216 202 197 198 205 208 156 161 143 123 105 101 99
92 75 58 47 41 34 31 33 35 31 27 28 39 47 60 74 75 67 65 57 44 26 10 358 347 322 286 264 243 239 225 212 203 191 176 169 169 180 154 151 145 113 88
98 85 73 59 48 41 37 36 39 37 32 34 41 52 65 73 77 70 58 57 50 38 30 20 23 21 23 354 312 265 231 206 197 191 180 171 172 178 160 149 148 129 99
107 91 74 60 49 41 37 38 43 42 37 42 44 45 52 61 68 64 53 51 51 42 32 32 38 36 40 44 51 65 50 58 126 140 168 168 159 145 141 137 134 121 110
113 94 76 64 54 46 40 41 45 47 45 48 50 49 51 55 59 56 54 53 54 51 47 55 59 54 52 54 56 58 56 57 68 74 86 106 111 128 140 143 140 129 116
114 99 84 70 60 51 45 44 49 52 52 53 59 59 59 62 63 63 59 56 57 58 54 59 63 61 60 61 64 62 59 62 66 74 79 80 86 105 116 129 141 140 138
123 109 93 79 67 60 60 56 60 61 60 60 60 63 61 63 66 66 63 60 61 64 62 59 59 60 62 64 66 70 66 68 65 66 74 78 83 92 107 122 119 120 130
130 118 106 91 81 73 67 63 65 68 67 66 66 67 67 67 70 70 68 67 65 65 66 64 64 62 62 65 67 70 72 73 71 69 74 77 79 87 95 108 114 120 123
129 123 114 103 89 79 74 71 72 73 73 74 74 72 73 73 72 72 71 72 70 67 67 66 67 66 65 64 66 68 68 71 73 74 77 79 85 87 89 96 101 104 113
133 125 115 104 95 87 83 81 80 80 82 84 83 79 75 74 72 71 70 70 70 69 67 67 68 67 67 67 67 68 66 65 67 71 76 80 86 88 89 97 104 113 119
138 134 126 116 107 99 95 93 88 86 87 86 83 79 76 76 75 73 72 71 70 68 67 69 68 67 68 69 72 73 72 70 68 66 68 71 76 81 91 93 99 108 117
146 143 134 127 120 113 105 100 97 92 93 92 89 85 82 80 79 74 73 75 72 72 70 71 69 65 62 55 63 77 77 75 74 71 70 68 68 58 60 79 92 107 118
150 143 138 135 129 123 117 112 107 104 101 95 94 92 90 86 83 80 80 80 77 75 74 73 72 67 61 42 40 58 76 75 75 77 81 87 81 77 68 62 58 54 74
151 147 145 140 132 127 124 119 116 112 106 99 94 92 93 91 89 88 83 81 81 81 80 79 78 75 60 44 46 47 73 73 69 68 70 76 81 87 95 95 93 72 55
149 148 146 138 132 130 127 122 118 115 111 104 99 97 97 95 93 89 85 82 79 79 79 79 79 77 62 41 40 49 78 75 71 68 69 72 69 54 57 90 89 88 74
146 144 142 140 138 135 133 128 124 118 111 104 98 97 99 99 97 93 91 88 86 81 80 80 80 79 68 34 18 13 87 81 75 68 60 65 74 31 3 78 89 91 98
135 137 138 140 138 137 137 131 125 120 114 109 105 101 101 100 100 98 95 91 89 88 87 81 78 78 71 38 17 355 85 89 92 91 87 63 48 26 5 53 76 84 80
137 139 139 139 138 141 138 129 123 117 116 116 111 105 103 102 103 104 101 101 97 93 91 90 86 78 70 63 35 15 38 64 77 83 84 73 45 35 17 6 53 44 345
141 143 139 135 138 144 140 130 123 121 121 119 114 111 110 110 110 111 108 106 109 112 108 101 96 92 80 59 51 40 31 9 57 58 67 75 53 45 28 34 44 323 290
142 143 140 137 138 143 140 131 126 127 125 120 114 112 110 109 115 121 121 121 124 113 113 111 103 98 98 105 100 74 48 19 41 60 60 55 37 194 118 87 327 285 292
145 146 146 141 139 139 133 127 128 127 123 119 116 116 115 115 111 114 116 115 107 103 105 103 102 104 101 80 81 114 127 157 132 109 135 179 223 103 89 162 196 30 32
148 147 144 139 137 138 137 139 140 139 129 122 120 119 113 105 104 83 53 54 62 38 35 66 80 78 80 53 17 357 22 16 31 335 155 123 121 111 86 77 58 39 56
149 148 145 141 139 142 142 142 144 144 139 135 135 130 124 120 121 119 107 57 56 63 52 35 27 71 68 62 32 23 4 335 319 301 71 64 53 52 47 41 49 47 34